| time (UTC) | temp F | wind direction | speed MPH | gust MPH | rain 1hr in | rain 24hr in | rain mn in | humidity % | barometer mb |
| 20260506161044 | 52 | 0 | 0.0 | 0.0 | 0.00 | 0.00 | 0.00 | 95 | 1024.0 |
| 20260506160539 | 52 | 0 | 0.0 | 0.0 | 0.00 | 0.00 | 0.00 | 96 | 1024.0 |
| 20260506160056 | 52 | 0 | 0.0 | 0.0 | 0.00 | 0.00 | 0.00 | 95 | 1024.1 |
| 20260506155538 | 52 | 0 | 0.0 | 0.0 | 0.00 | 0.00 | 0.00 | 95 | 1024.2 |
| 20260506155038 | 52 | 0 | 0.0 | 1.0 | 0.00 | 0.00 | 0.00 | 95 | 1024.1 |
| 20260506154552 | 52 | 0 | 0.0 | 1.0 | 0.00 | 0.00 | 0.00 | 95 | 1024.1 |
| 20260506154131 | 52 | 0 | 0.0 | 2.0 | 0.00 | 0.00 | 0.00 | 95 | 1024.1 |
| 20260506153541 | 52 | 92 | 0.0 | 2.0 | 0.00 | 0.00 | 0.00 | 96 | 1024.1 |
| 20260506153055 | 52 | 0 | 0.0 | 1.0 | 0.00 | 0.00 | 0.00 | 96 | 1024.4 |
| 20260506152539 | 52 | 82 | 0.0 | 0.0 | 0.00 | 0.00 | 0.00 | 95 | 1024.3 |
| 20260506152040 | 52 | 0 | 0.0 | 0.0 | 0.00 | 0.00 | 0.00 | 95 | 1024.3 |
| 20260506151550 | 53 | 0 | 0.0 | 0.0 | 0.00 | 0.00 | 0.00 | 95 | 1024.3 |
| 20260506151039 | 53 | 0 | 0.0 | 1.0 | 0.00 | 0.00 | 0.00 | 95 | 1024.5 |
| 20260506150539 | 53 | 0 | 0.0 | 1.0 | 0.00 | 0.00 | 0.00 | 95 | 1024.6 |
| 20260506150048 | 53 | 0 | 0.0 | 1.0 | 0.00 | 0.00 | 0.00 | 95 | 1024.6 |
| 20260506145539 | 53 | 0 | 0.0 | 0.0 | 0.00 | 0.00 | 0.00 | 95 | 1024.7 |
| 20260506145040 | 53 | 0 | 0.0 | 1.0 | 0.00 | 0.00 | 0.00 | 95 | 1024.9 |
| 20260506144552 | 53 | 0 | 0.0 | 1.0 | 0.00 | 0.00 | 0.00 | 95 | 1024.9 |
| 20260506144039 | 53 | 77 | 0.0 | 1.0 | 0.00 | 0.00 | 0.00 | 95 | 1024.9 |
| 20260506143540 | 53 | 0 | 0.0 | 0.0 | 0.00 | 0.00 | 0.00 | 95 | 1024.9 |
| 20260506143050 | 53 | 0 | 0.0 | 0.0 | 0.00 | 0.00 | 0.00 | 95 | 1024.9 |
| 20260506142542 | 53 | 0 | 0.0 | 0.0 | 0.00 | 0.00 | 0.00 | 95 | 1025.0 |
| 20260506142039 | 54 | 0 | 0.0 | 0.0 | 0.00 | 0.00 | 0.00 | 95 | 1025.0 |
| 20260506141554 | 54 | 0 | 0.0 | 0.0 | 0.00 | 0.00 | 0.00 | 95 | 1025.1 |
| 20260506141039 | 54 | 0 | 0.0 | 0.0 | 0.00 | 0.00 | 0.00 | 95 | 1025.2 |
| 20260506140539 | 54 | 0 | 0.0 | 0.0 | 0.00 | 0.00 | 0.00 | 95 | 1025.1 |
| 20260506140054 | 54 | 0 | 0.0 | 0.0 | 0.00 | 0.00 | 0.00 | 95 | 1025.2 |
| 20260506135539 | 54 | 0 | 0.0 | 0.0 | 0.00 | 0.00 | 0.00 | 95 | 1025.3 |
| 20260506135036 | 54 | 0 | 0.0 | 0.0 | 0.00 | 0.00 | 0.00 | 95 | 1025.2 |
| 20260506134553 | 54 | 0 | 0.0 | 0.0 | 0.00 | 0.00 | 0.00 | 95 | 1025.2 |
| 20260506134043 | 54 | 0 | 0.0 | 0.0 | 0.00 | 0.00 | 0.00 | 95 | 1025.2 |
| 20260506133539 | 54 | 77 | 0.0 | 1.0 | 0.00 | 0.00 | 0.00 | 95 | 1025.2 |
| 20260506133054 | 54 | 0 | 0.0 | 1.0 | 0.00 | 0.00 | 0.00 | 95 | 1025.3 |
| 20260506132536 | 55 | 77 | 0.0 | 1.0 | 0.00 | 0.00 | 0.00 | 95 | 1025.3 |
| 20260506132036 | 55 | 77 | 0.0 | 1.0 | 0.00 | 0.00 | 0.00 | 95 | 1025.3 |
| 20260506131548 | 55 | 0 | 0.0 | 0.0 | 0.00 | 0.00 | 0.00 | 95 | 1025.3 |
| 20260506131039 | 55 | 0 | 0.0 | 0.0 | 0.00 | 0.00 | 0.00 | 95 | 1025.3 |
| 20260506130540 | 55 | 0 | 0.0 | 1.0 | 0.00 | 0.00 | 0.00 | 95 | 1025.2 |
| 20260506130050 | 55 | 0 | 0.0 | 1.0 | 0.00 | 0.00 | 0.00 | 96 | 1025.3 |
| 20260506125540 | 55 | 0 | 0.0 | 0.0 | 0.00 | 0.00 | 0.00 | 96 | 1025.4 |
| 20260506125039 | 55 | 0 | 0.0 | 0.0 | 0.00 | 0.00 | 0.00 | 95 | 1025.2 |
| 20260506124550 | 55 | 0 | 0.0 | 0.0 | 0.00 | 0.00 | 0.00 | 95 | 1025.4 |
| 20260506124036 | 55 | 0 | 0.0 | 0.0 | 0.00 | 0.00 | 0.00 | 95 | 1025.4 |
| 20260506123536 | 55 | 0 | 0.0 | 0.0 | 0.00 | 0.00 | 0.00 | 95 | 1025.3 |
| 20260506123050 | 55 | 0 | 0.0 | 0.0 | 0.00 | 0.00 | 0.00 | 95 | 1025.4 |
| 20260506122535 | 55 | 0 | 0.0 | 0.0 | 0.00 | 0.00 | 0.00 | 95 | 1025.3 |
| 20260506122036 | 55 | 0 | 0.0 | 0.0 | 0.00 | 0.00 | 0.00 | 95 | 1025.3 |
| 20260506121604 | 55 | 0 | 0.0 | 0.0 | 0.00 | 0.00 | 0.00 | 95 | 1025.3 |
| 20260506121036 | 55 | 0 | 0.0 | 0.0 | 0.00 | 0.00 | 0.00 | 96 | 1025.4 |
| 20260506120537 | 55 | 0 | 0.0 | 0.0 | 0.00 | 0.00 | 0.00 | 96 | 1025.3 |
| 20260506120050 | 55 | 0 | 0.0 | 0.0 | 0.00 | 0.00 | 0.00 | 96 | 1025.3 |
| 20260506115540 | 55 | 0 | 0.0 | 0.0 | 0.00 | 0.00 | 0.00 | 95 | 1025.3 |
| 20260506115037 | 55 | 0 | 0.0 | 0.0 | 0.00 | 0.00 | 0.00 | 95 | 1025.3 |
| 20260506114546 | 55 | 0 | 0.0 | 1.0 | 0.00 | 0.00 | 0.00 | 95 | 1025.3 |
| 20260506114040 | 55 | 0 | 0.0 | 1.0 | 0.00 | 0.00 | 0.00 | 95 | 1025.3 |
| 20260506113539 | 55 | 0 | 0.0 | 1.0 | 0.00 | 0.00 | 0.00 | 95 | 1025.2 |
| 20260506113047 | 55 | 0 | 0.0 | 2.0 | 0.00 | 0.00 | 0.00 | 96 | 1025.3 |
| 20260506112537 | 55 | 0 | 0.0 | 2.0 | 0.00 | 0.00 | 0.00 | 96 | 1025.4 |
| 20260506112039 | 55 | 81 | 0.0 | 2.0 | 0.00 | 0.00 | 0.00 | 96 | 1025.3 |
| 20260506111544 | 55 | 82 | 1.0 | 2.0 | 0.00 | 0.00 | 0.00 | 96 | 1025.3 |
| 20260506111036 | 55 | 88 | 1.0 | 2.0 | 0.00 | 0.00 | 0.00 | 96 | 1025.3 |
| 20260506110539 | 55 | 62 | 1.0 | 2.0 | 0.00 | 0.00 | 0.00 | 96 | 1025.4 |
| 20260506110051 | 55 | 78 | 1.0 | 2.0 | 0.00 | 0.00 | 0.00 | 96 | 1025.5 |
| 20260506105536 | 55 | 78 | 1.0 | 2.0 | 0.00 | 0.00 | 0.00 | 96 | 1025.6 |
| 20260506105037 | 55 | 71 | 1.0 | 2.0 | 0.00 | 0.00 | 0.00 | 96 | 1025.6 |
| 20260506104549 | 55 | 83 | 1.0 | 2.0 | 0.00 | 0.00 | 0.00 | 96 | 1025.6 |
| 20260506104036 | 55 | 78 | 0.0 | 2.0 | 0.00 | 0.00 | 0.00 | 96 | 1025.6 |
| 20260506103539 | 55 | 79 | 0.0 | 2.0 | 0.00 | 0.00 | 0.00 | 96 | 1025.6 |
| 20260506103048 | 55 | 0 | 0.0 | 2.0 | 0.00 | 0.00 | 0.00 | 96 | 1025.6 |
| 20260506102540 | 55 | 79 | 0.0 | 1.0 | 0.00 | 0.00 | 0.00 | 96 | 1025.6 |
| 20260506102044 | 55 | 79 | 0.0 | 2.0 | 0.00 | 0.00 | 0.00 | 96 | 1025.6 |
| 20260506101608 | 55 | 79 | 0.0 | 2.0 | 0.00 | 0.00 | 0.00 | 96 | 1025.7 |
| 20260506101039 | 56 | 75 | 1.0 | 2.0 | 0.00 | 0.00 | 0.00 | 96 | 1025.6 |
| 20260506100539 | 56 | 73 | 0.0 | 2.0 | 0.00 | 0.00 | 0.00 | 96 | 1025.6 |
| 20260506100048 | 56 | 73 | 1.0 | 2.0 | 0.00 | 0.00 | 0.00 | 96 | 1025.7 |
| 20260506095539 | 55 | 0 | 0.0 | 0.0 | 0.00 | 0.00 | 0.00 | 96 | 1025.6 |
| 20260506095039 | 55 | 0 | 0.0 | 0.0 | 0.00 | 0.00 | 0.00 | 96 | 1025.6 |
| 20260506094553 | 54 | 0 | 0.0 | 0.0 | 0.00 | 0.00 | 0.00 | 96 | 1025.8 |
| 20260506094039 | 54 | 0 | 0.0 | 0.0 | 0.00 | 0.00 | 0.00 | 96 | 1025.7 |
| 20260506093540 | 54 | 0 | 0.0 | 1.0 | 0.00 | 0.00 | 0.00 | 96 | 1025.7 |
| 20260506093043 | 54 | 0 | 0.0 | 1.0 | 0.00 | 0.00 | 0.00 | 96 | 1025.8 |
| 20260506092539 | 54 | 73 | 0.0 | 1.0 | 0.00 | 0.00 | 0.00 | 96 | 1025.7 |
| 20260506092039 | 54 | 0 | 0.0 | 1.0 | 0.00 | 0.00 | 0.00 | 96 | 1025.9 |
| 20260506091545 | 54 | 0 | 0.0 | 1.0 | 0.00 | 0.00 | 0.00 | 95 | 1025.8 |
| 20260506091039 | 54 | 73 | 0.0 | 1.0 | 0.00 | 0.00 | 0.00 | 95 | 1025.8 |
| 20260506090540 | 54 | 0 | 0.0 | 3.0 | 0.00 | 0.00 | 0.00 | 96 | 1026.0 |
| 20260506090059 | 54 | 0 | 1.0 | 3.0 | 0.00 | 0.00 | 0.00 | 97 | 1025.9 |
| 20260506085536 | 53 | 69 | 1.0 | 3.0 | 0.00 | 0.00 | 0.00 | 96 | 1026.0 |
| 20260506085040 | 52 | 75 | 1.0 | 4.0 | 0.00 | 0.00 | 0.00 | 95 | 1026.0 |
| 20260506084552 | 52 | 76 | 1.0 | 4.0 | 0.00 | 0.00 | 0.00 | 95 | 1025.9 |
| 20260506084039 | 52 | 71 | 3.0 | 7.0 | 0.00 | 0.00 | 0.00 | 95 | 1026.0 |
| 20260506083540 | 52 | 70 | 2.0 | 8.0 | 0.00 | 0.00 | 0.00 | 94 | 1025.9 |
| 20260506083045 | 54 | 63 | 3.0 | 8.0 | 0.00 | 0.00 | 0.00 | 91 | 1025.9 |
| 20260506082540 | 55 | 0 | 0.0 | 0.0 | 0.00 | 0.00 | 0.00 | 95 | 1025.8 |
| 20260506082040 | 55 | 0 | 0.0 | 0.0 | 0.00 | 0.00 | 0.00 | 95 | 1025.7 |
| 20260506081557 | 54 | 0 | 0.0 | 0.0 | 0.00 | 0.00 | 0.00 | 95 | 1025.8 |
| 20260506081043 | 54 | 0 | 0.0 | 0.0 | 0.00 | 0.00 | 0.00 | 95 | 1025.8 |
| 20260506080540 | 54 | 0 | 0.0 | 0.0 | 0.00 | 0.00 | 0.00 | 95 | 1025.9 |
| 20260506073046 | 54 | 0 | 0.0 | 0.0 | 0.00 | 0.00 | 0.00 | 93 | 1025.9 |
| 20260506072541 | 55 | 0 | 0.0 | 0.0 | 0.00 | 0.00 | 0.00 | 94 | 1025.9 |
| 20260506072041 | 55 | 0 | 0.0 | 0.0 | 0.00 | 0.00 | 0.00 | 94 | 1025.9 |
| 20260506071549 | 55 | 0 | 0.0 | 0.0 | 0.00 | 0.00 | 0.00 | 93 | 1025.8 |
| 20260506071044 | 56 | 0 | 0.0 | 0.0 | 0.00 | 0.00 | 0.00 | 93 | 1025.6 |
| 20260506070540 | 56 | 0 | 0.0 | 1.0 | 0.00 | 0.00 | 0.00 | 93 | 1025.6 |
| 20260506062040 | 58 | 270 | 1.0 | 2.0 | 0.00 | 0.00 | 0.00 | 92 | 1025.4 |
| 20260506061549 | 58 | 270 | 1.0 | 3.0 | 0.00 | 0.00 | 0.00 | 92 | 1025.4 |
| 20260506061041 | 59 | 282 | 1.0 | 3.0 | 0.00 | 0.00 | 0.00 | 92 | 1025.4 |
| 20260506060540 | 59 | 232 | 1.0 | 3.0 | 0.00 | 0.00 | 0.00 | 91 | 1025.4 |
| 20260506051038 | 61 | 234 | 3.0 | 5.0 | 0.00 | 0.00 | 0.00 | 87 | 1025.4 |
| 20260506050538 | 62 | 241 | 4.0 | 6.0 | 0.00 | 0.00 | 0.00 | 86 | 1025.5 |
| 20260506050114 | 62 | 240 | 4.0 | 6.0 | 0.00 | 0.00 | 0.00 | 86 | 1025.5 |
| 20260506045039 | 62 | 239 | 4.0 | 7.0 | 0.00 | 0.00 | 0.00 | 85 | 1025.6 |
| 20260506044548 | 62 | 236 | 4.0 | 8.0 | 0.00 | 0.00 | 0.00 | 84 | 1025.6 |
| 20260506044039 | 63 | 238 | 4.0 | 8.0 | 0.00 | 0.00 | 0.00 | 83 | 1025.6 |
| 20260506043536 | 63 | 242 | 4.0 | 9.0 | 0.00 | 0.00 | 0.00 | 82 | 1025.7 |
| 20260506043050 | 64 | 234 | 5.0 | 10.0 | 0.00 | 0.00 | 0.00 | 80 | 1025.6 |
| 20260506042540 | 64 | 243 | 6.0 | 10.0 | 0.00 | 0.00 | 0.00 | 80 | 1025.5 |
| 20260506042042 | 65 | 230 | 6.0 | 9.0 | 0.00 | 0.00 | 0.00 | 79 | 1025.6 |
| 20260506041558 | 65 | 238 | 5.0 | 9.0 | 0.00 | 0.00 | 0.00 | 79 | 1025.6 |
| 20260506041038 | 65 | 236 | 6.0 | 9.0 | 0.00 | 0.00 | 0.00 | 78 | 1025.6 |
| 20260506040538 | 66 | 238 | 5.0 | 8.0 | 0.00 | 0.00 | 0.00 | 78 | 1025.6 |
| 20260506040051 | 66 | 238 | 6.0 | 8.0 | 0.00 | 0.00 | 0.00 | 77 | 1025.6 |
| 20260506035541 | 66 | 251 | 5.0 | 9.0 | 0.00 | 0.00 | 0.00 | 77 | 1025.5 |
| 20260506035039 | 67 | 250 | 5.0 | 11.0 | 0.00 | 0.00 | 0.00 | 76 | 1025.5 |
| 20260506034553 | 67 | 243 | 6.0 | 11.0 | 0.00 | 0.00 | 0.00 | 75 | 1025.6 |
| 20260506034038 | 67 | 255 | 7.0 | 11.0 | 0.00 | 0.00 | 0.00 | 75 | 1025.6 |
| 20260506033539 | 67 | 252 | 7.0 | 12.0 | 0.00 | 0.00 | 0.00 | 75 | 1025.6 |
| 20260506033054 | 67 | 243 | 7.0 | 12.0 | 0.00 | 0.00 | 0.00 | 75 | 1025.7 |
| 20260506032543 | 67 | 238 | 6.0 | 10.0 | 0.00 | 0.00 | 0.00 | 75 | 1025.7 |
| 20260506032039 | 67 | 248 | 7.0 | 10.0 | 0.00 | 0.00 | 0.00 | 75 | 1025.6 |
| 20260506031549 | 67 | 249 | 6.0 | 11.0 | 0.00 | 0.00 | 0.00 | 75 | 1025.6 |
| 20260506031038 | 67 | 232 | 6.0 | 11.0 | 0.00 | 0.00 | 0.00 | 76 | 1025.6 |
| 20260506030538 | 67 | 241 | 8.0 | 11.0 | 0.00 | 0.00 | 0.00 | 75 | 1025.6 |
| 20260506030048 | 67 | 239 | 7.0 | 12.0 | 0.00 | 0.00 | 0.00 | 74 | 1025.5 |
| 20260506025539 | 67 | 238 | 7.0 | 12.0 | 0.00 | 0.00 | 0.00 | 75 | 1025.6 |
| 20260506025038 | 67 | 253 | 6.0 | 11.0 | 0.00 | 0.00 | 0.00 | 74 | 1025.6 |
| 20260506024546 | 68 | 256 | 7.0 | 12.0 | 0.00 | 0.00 | 0.00 | 73 | 1025.4 |
| 20260506024036 | 68 | 254 | 7.0 | 16.0 | 0.00 | 0.00 | 0.00 | 73 | 1025.5 |
| 20260506023539 | 68 | 242 | 7.0 | 16.0 | 0.00 | 0.00 | 0.00 | 74 | 1025.5 |
| 20260506023049 | 67 | 235 | 8.0 | 16.0 | 0.00 | 0.00 | 0.00 | 73 | 1025.4 |
| 20260506022538 | 68 | 264 | 8.0 | 13.0 | 0.00 | 0.00 | 0.00 | 74 | 1025.5 |
| 20260506022036 | 68 | 238 | 6.0 | 14.0 | 0.00 | 0.00 | 0.00 | 74 | 1025.5 |
| 20260506021540 | 68 | 249 | 7.0 | 14.0 | 0.00 | 0.00 | 0.00 | 75 | 1025.4 |
| 20260506021038 | 67 | 261 | 8.0 | 14.0 | 0.00 | 0.00 | 0.00 | 74 | 1025.5 |
| 20260506020539 | 68 | 242 | 7.0 | 14.0 | 0.00 | 0.00 | 0.00 | 74 | 1025.6 |
| 20260506020053 | 67 | 242 | 9.0 | 15.0 | 0.00 | 0.00 | 0.00 | 75 | 1025.5 |
| 20260506015539 | 68 | 257 | 9.0 | 15.0 | 0.00 | 0.00 | 0.00 | 73 | 1025.6 |
| 20260506015039 | 68 | 247 | 6.0 | 14.0 | 0.00 | 0.00 | 0.00 | 74 | 1025.7 |
| 20260506014545 | 68 | 257 | 7.0 | 14.0 | 0.00 | 0.00 | 0.00 | 75 | 1025.6 |
| 20260506014039 | 68 | 315 | 8.0 | 14.0 | 0.00 | 0.00 | 0.00 | 73 | 1025.5 |
| 20260506013539 | 68 | 265 | 7.0 | 14.0 | 0.00 | 0.00 | 0.00 | 74 | 1025.5 |
| 20260506013053 | 68 | 271 | 5.0 | 13.0 | 0.00 | 0.00 | 0.00 | 73 | 1025.6 |
| 20260506012541 | 68 | 306 | 6.0 | 16.0 | 0.00 | 0.00 | 0.00 | 74 | 1025.8 |
| 20260506012041 | 68 | 261 | 8.0 | 16.0 | 0.00 | 0.00 | 0.00 | 74 | 1025.9 |
| 20260506011546 | 68 | 274 | 7.0 | 14.0 | 0.00 | 0.00 | 0.00 | 74 | 1026.0 |
| 20260506011039 | 68 | 260 | 8.0 | 14.0 | 0.00 | 0.00 | 0.00 | 73 | 1025.9 |
| 20260506010539 | 68 | 273 | 7.0 | 14.0 | 0.00 | 0.00 | 0.00 | 73 | 1026.0 |
| 20260506010049 | 68 | 234 | 7.0 | 15.0 | 0.00 | 0.00 | 0.00 | 73 | 1026.0 |
| 20260506005538 | 67 | 307 | 9.0 | 16.0 | 0.00 | 0.00 | 0.00 | 72 | 1026.1 |
| 20260506005038 | 67 | 249 | 6.0 | 16.0 | 0.00 | 0.00 | 0.00 | 74 | 1026.1 |
| 20260506004547 | 67 | 254 | 6.0 | 13.0 | 0.00 | 0.00 | 0.00 | 72 | 1026.2 |
| 20260506004038 | 67 | 219 | 7.0 | 17.0 | 0.00 | 0.00 | 0.00 | 74 | 1026.3 |
| 20260506003539 | 66 | 244 | 11.0 | 17.0 | 0.00 | 0.00 | 0.00 | 73 | 1026.3 |
| 20260506003049 | 67 | 261 | 8.0 | 15.0 | 0.00 | 0.00 | 0.00 | 73 | 1026.3 |
| 20260506002539 | 68 | 244 | 10.0 | 15.0 | 0.00 | 0.00 | 0.00 | 72 | 1026.3 |
| 20260506002039 | 67 | 259 | 6.0 | 13.0 | 0.00 | 0.00 | 0.00 | 73 | 1026.5 |
| 20260506001555 | 67 | 285 | 5.0 | 13.0 | 0.00 | 0.00 | 0.00 | 73 | 1026.5 |
| 20260506001036 | 67 | 264 | 9.0 | 14.0 | 0.00 | 0.00 | 0.00 | 73 | 1026.5 |
| 20260506000538 | 67 | 225 | 7.0 | 14.0 | 0.00 | 0.00 | 0.00 | 72 | 1026.6 |
| 20260506000042 | 67 | 273 | 7.0 | 14.0 | 0.00 | 0.00 | 0.00 | 73 | 1026.6 |
| 20260505235539 | 67 | 253 | 6.0 | 12.0 | 0.00 | 0.00 | 0.00 | 73 | 1026.7 |
| 20260505235040 | 67 | 288 | 8.0 | 12.0 | 0.00 | 0.00 | 0.00 | 74 | 1026.8 |
| 20260505234548 | 67 | 280 | 5.0 | 11.0 | 0.00 | 0.00 | 0.00 | 76 | 1026.7 |
| 20260505234039 | 67 | 275 | 5.0 | 12.0 | 0.00 | 0.00 | 0.00 | 75 | 1026.7 |
| 20260505233541 | 66 | 273 | 8.0 | 12.0 | 0.00 | 0.00 | 0.00 | 75 | 1026.8 |
| 20260505233053 | 66 | 322 | 5.0 | 12.0 | 0.00 | 0.00 | 0.00 | 74 | 1026.7 |
| 20260505232539 | 66 | 259 | 6.0 | 13.0 | 0.00 | 0.00 | 0.00 | 75 | 1026.7 |
| 20260505232039 | 66 | 263 | 6.0 | 13.0 | 0.00 | 0.00 | 0.00 | 76 | 1026.7 |
| 20260505231548 | 66 | 306 | 7.0 | 11.0 | 0.00 | 0.00 | 0.00 | 75 | 1026.7 |
| 20260505231039 | 66 | 315 | 4.0 | 10.0 | 0.00 | 0.00 | 0.00 | 77 | 1026.8 |
| 20260505230538 | 65 | 302 | 5.0 | 10.0 | 0.00 | 0.00 | 0.00 | 76 | 1026.8 |
| 20260505230112 | 65 | 270 | 3.0 | 7.0 | 0.00 | 0.00 | 0.00 | 76 | 1026.8 |
| 20260505225540 | 65 | 278 | 3.0 | 7.0 | 0.00 | 0.00 | 0.00 | 77 | 1026.9 |
| 20260505225038 | 65 | 242 | 1.0 | 7.0 | 0.00 | 0.00 | 0.00 | 78 | 1027.0 |
| 20260505224550 | 65 | 58 | 3.0 | 7.0 | 0.00 | 0.00 | 0.00 | 79 | 1027.0 |
| 20260505224038 | 65 | 283 | 3.0 | 8.0 | 0.00 | 0.00 | 0.00 | 78 | 1027.2 |
| 20260505223539 | 64 | 285 | 3.0 | 8.0 | 0.00 | 0.00 | 0.00 | 79 | 1027.1 |
| 20260505223054 | 64 | 236 | 3.0 | 8.0 | 0.00 | 0.00 | 0.00 | 80 | 1027.1 |
| 20260505222538 | 63 | 252 | 4.0 | 8.0 | 0.00 | 0.00 | 0.00 | 81 | 1027.1 |
| 20260505222043 | 63 | 284 | 3.0 | 8.0 | 0.00 | 0.00 | 0.00 | 81 | 1027.3 |
| 20260505221555 | 63 | 298 | 3.0 | 8.0 | 0.00 | 0.00 | 0.00 | 82 | 1027.4 |
| 20260505221035 | 62 | 237 | 4.0 | 7.0 | 0.00 | 0.00 | 0.00 | 83 | 1027.3 |
| 20260505220539 | 62 | 277 | 4.0 | 7.0 | 0.00 | 0.00 | 0.00 | 84 | 1027.4 |
| 20260505220053 | 61 | 292 | 2.0 | 5.0 | 0.00 | 0.00 | 0.00 | 85 | 1027.5 |
| 20260505215539 | 61 | 231 | 2.0 | 5.0 | 0.00 | 0.00 | 0.00 | 86 | 1027.4 |
| 20260505215036 | 61 | 221 | 1.0 | 4.0 | 0.00 | 0.00 | 0.00 | 86 | 1027.4 |
| 20260505214550 | 60 | 239 | 2.0 | 4.0 | 0.00 | 0.00 | 0.00 | 86 | 1027.4 |
| 20260505214038 | 60 | 236 | 2.0 | 3.0 | 0.00 | 0.00 | 0.00 | 87 | 1027.5 |
| 20260505213539 | 59 | 250 | 1.0 | 2.0 | 0.00 | 0.00 | 0.00 | 87 | 1027.5 |
| 20260505213049 | 59 | 0 | 0.0 | 2.0 | 0.00 | 0.00 | 0.00 | 87 | 1027.5 |
| 20260505212540 | 59 | 0 | 0.0 | 1.0 | 0.00 | 0.00 | 0.00 | 87 | 1027.7 |
| 20260505212039 | 59 | 246 | 0.0 | 3.0 | 0.00 | 0.00 | 0.00 | 87 | 1027.7 |
| 20260505211549 | 58 | 0 | 0.0 | 3.0 | 0.00 | 0.00 | 0.00 | 87 | 1027.6 |
| 20260505211039 | 58 | 246 | 1.0 | 3.0 | 0.00 | 0.00 | 0.00 | 87 | 1027.7 |
| 20260505210538 | 58 | 248 | 1.0 | 3.0 | 0.00 | 0.00 | 0.00 | 87 | 1027.7 |
| 20260505210045 | 58 | 267 | 1.0 | 6.0 | 0.00 | 0.00 | 0.00 | 87 | 1027.7 |
| 20260505205539 | 58 | 259 | 2.0 | 6.0 | 0.00 | 0.00 | 0.00 | 87 | 1027.8 |
| 20260505205035 | 58 | 275 | 2.0 | 4.0 | 0.00 | 0.00 | 0.00 | 88 | 1027.7 |
| 20260505204542 | 57 | 269 | 1.0 | 3.0 | 0.00 | 0.00 | 0.00 | 89 | 1027.8 |
| 20260505204039 | 57 | 252 | 0.0 | 3.0 | 0.00 | 0.00 | 0.00 | 91 | 1027.6 |
| 20260505203538 | 56 | 0 | 0.0 | 3.0 | 0.00 | 0.00 | 0.00 | 93 | 1027.6 |
| 20260505203055 | 55 | 277 | 0.0 | 3.0 | 0.00 | 0.00 | 0.00 | 93 | 1027.7 |
| 20260505202539 | 55 | 0 | 0.0 | 0.0 | 0.00 | 0.00 | 0.00 | 94 | 1027.7 |
| 20260505202039 | 54 | 0 | 0.0 | 0.0 | 0.00 | 0.00 | 0.00 | 94 | 1027.7 |
| 20260505201551 | 53 | 0 | 0.0 | 0.0 | 0.00 | 0.00 | 0.00 | 94 | 1027.6 |
| 20260505201042 | 53 | 0 | 0.0 | 0.0 | 0.00 | 0.00 | 0.00 | 94 | 1027.6 |
| 20260505200539 | 53 | 0 | 0.0 | 0.0 | 0.00 | 0.00 | 0.00 | 94 | 1027.6 |
| 20260505200108 | 52 | 0 | 0.0 | 0.0 | 0.00 | 0.00 | 0.00 | 94 | 1027.6 |
| 20260505195544 | 52 | 0 | 0.0 | 0.0 | 0.00 | 0.00 | 0.00 | 94 | 1027.6 |
| 20260505195042 | 52 | 0 | 0.0 | 0.0 | 0.00 | 0.00 | 0.00 | 93 | 1027.7 |
| 20260505194549 | 52 | 0 | 0.0 | 0.0 | 0.00 | 0.00 | 0.00 | 93 | 1027.5 |
| 20260505194039 | 52 | 0 | 0.0 | 0.0 | 0.00 | 0.00 | 0.00 | 93 | 1027.5 |
| 20260505193539 | 51 | 0 | 0.0 | 0.0 | 0.00 | 0.00 | 0.00 | 93 | 1027.6 |
| 20260505193058 | 51 | 0 | 0.0 | 0.0 | 0.00 | 0.00 | 0.00 | 93 | 1027.5 |
| 20260505192538 | 51 | 0 | 0.0 | 0.0 | 0.00 | 0.00 | 0.00 | 93 | 1027.4 |
| 20260505192039 | 51 | 0 | 0.0 | 0.0 | 0.00 | 0.00 | 0.00 | 93 | 1027.5 |
| 20260505191557 | 51 | 0 | 0.0 | 0.0 | 0.00 | 0.00 | 0.00 | 93 | 1027.5 |
| 20260505191041 | 51 | 0 | 0.0 | 0.0 | 0.00 | 0.00 | 0.00 | 93 | 1027.4 |
| 20260505190543 | 51 | 0 | 0.0 | 0.0 | 0.00 | 0.00 | 0.00 | 93 | 1027.4 |
| 20260505190050 | 51 | 0 | 0.0 | 0.0 | 0.00 | 0.00 | 0.00 | 93 | 1027.4 |
| 20260505185539 | 51 | 0 | 0.0 | 0.0 | 0.00 | 0.00 | 0.00 | 93 | 1027.4 |
| 20260505185039 | 51 | 0 | 0.0 | 0.0 | 0.00 | 0.00 | 0.00 | 93 | 1027.5 |
| 20260505184548 | 51 | 0 | 0.0 | 0.0 | 0.00 | 0.00 | 0.00 | 93 | 1027.5 |
| 20260505184040 | 51 | 0 | 0.0 | 0.0 | 0.00 | 0.00 | 0.00 | 93 | 1027.4 |
| 20260505183541 | 51 | 0 | 0.0 | 0.0 | 0.00 | 0.00 | 0.00 | 93 | 1027.5 |
| 20260505183048 | 51 | 0 | 0.0 | 0.0 | 0.00 | 0.00 | 0.00 | 93 | 1027.5 |
| 20260505182540 | 51 | 197 | 0.0 | 0.0 | 0.00 | 0.00 | 0.00 | 93 | 1027.4 |
| 20260505182039 | 50 | 0 | 0.0 | 0.0 | 0.00 | 0.00 | 0.00 | 93 | 1027.5 |
| 20260505181554 | 50 | 0 | 0.0 | 2.0 | 0.00 | 0.00 | 0.00 | 92 | 1027.6 |
| 20260505181038 | 51 | 0 | 1.0 | 2.0 | 0.00 | 0.00 | 0.00 | 92 | 1027.5 |
| 20260505180538 | 51 | 195 | 0.0 | 1.0 | 0.00 | 0.00 | 0.00 | 93 | 1027.5 |
| 20260505180047 | 51 | 0 | 0.0 | 0.0 | 0.00 | 0.00 | 0.00 | 93 | 1027.5 |
| 20260505175539 | 51 | 0 | 0.0 | 0.0 | 0.00 | 0.00 | 0.00 | 93 | 1027.5 |
| 20260505175039 | 51 | 0 | 0.0 | 0.0 | 0.00 | 0.00 | 0.00 | 93 | 1027.6 |
| 20260505174557 | 51 | 0 | 0.0 | 0.0 | 0.00 | 0.00 | 0.00 | 93 | 1027.6 |
| 20260505174040 | 51 | 0 | 0.0 | 0.0 | 0.00 | 0.00 | 0.00 | 93 | 1027.7 |
| 20260505173538 | 52 | 0 | 0.0 | 1.0 | 0.00 | 0.00 | 0.00 | 93 | 1027.7 |
| 20260505173054 | 52 | 0 | 0.0 | 2.0 | 0.00 | 0.00 | 0.00 | 93 | 1027.7 |
| 20260505172538 | 52 | 0 | 0.0 | 2.0 | 0.00 | 0.00 | 0.00 | 93 | 1027.7 |
| 20260505172039 | 52 | 0 | 0.0 | 1.0 | 0.00 | 0.00 | 0.00 | 93 | 1027.7 |
| 20260505171546 | 52 | 0 | 0.0 | 1.0 | 0.00 | 0.00 | 0.00 | 93 | 1027.8 |
| 20260505171039 | 52 | 196 | 0.0 | 1.0 | 0.00 | 0.00 | 0.00 | 93 | 1027.8 |
| 20260505170538 | 52 | 0 | 0.0 | 0.0 | 0.00 | 0.00 | 0.00 | 93 | 1027.8 |
| 20260505170051 | 52 | 0 | 0.0 | 1.0 | 0.00 | 0.00 | 0.00 | 93 | 1027.8 |
| 20260505165543 | 52 | 0 | 0.0 | 1.0 | 0.00 | 0.00 | 0.00 | 93 | 1027.9 |
| 20260505165038 | 52 | 0 | 0.0 | 0.0 | 0.00 | 0.00 | 0.00 | 93 | 1028.0 |
| 20260505164551 | 52 | 0 | 0.0 | 1.0 | 0.00 | 0.00 | 0.00 | 93 | 1028.0 |
| 20260505164039 | 52 | 0 | 0.0 | 1.0 | 0.00 | 0.00 | 0.00 | 94 | 1027.9 |
| 20260505163538 | 52 | 195 | 0.0 | 1.0 | 0.00 | 0.00 | 0.00 | 94 | 1028.0 |
| 20260505163048 | 52 | 195 | 0.0 | 1.0 | 0.00 | 0.00 | 0.00 | 94 | 1027.9 |
| 20260505162538 | 51 | 195 | 0.0 | 1.0 | 0.00 | 0.00 | 0.00 | 94 | 1028.0 |
| 20260505162039 | 51 | 177 | 0.0 | 1.0 | 0.00 | 0.00 | 0.00 | 94 | 1028.0 |
| 20260505161548 | 51 | 0 | 0.0 | 2.0 | 0.00 | 0.00 | 0.00 | 94 | 1028.1 |